London City, United Kingdom

5:05 AM BST on May 29, 2017 (GMT +0100)
London City

Weather History for EGLC - August, 2013

Change the Weather History Date:

Tuesday, August 13, 2013

  Actual Average Record
Temperature  
Mean Temperature 62 °F -  
Max Temperature 69 °F 71 °F 82 °F (2003)
Min Temperature 55 °F 59 °F 53 °F (1998)
Degree Days  
Heating Degree Days 3    
Growing Degree Days 12 (Base 50)    
Moisture  
Dew Point 49 °F    
Average Humidity 63    
Maximum Humidity 82    
Minimum Humidity 40    
Precipitation  
Precipitation 0.00 in - - ()
Sea Level Pressure  
Sea Level Pressure 30.16 in    
Wind  
Wind Speed 10 mph ()    
Max Wind Speed 16 mph    
Max Gust Speed -    
Visibility 6.2 miles    
Events      
Averages and records for this station are not official NWS values.
T = Trace of Precipitation, MM = Missing Value Source: Averaged Metar Reports

Daily Weather History Graph

Daily Weather History Graph

Search for Another Location

Airport or City:

Trip Planner

Search our weather history database for the weather conditions in past years. The results will help you decide how hot, cold, wet, or windy it might be!

Date:

Astronomy

Aug. 13, 2013 Rise Set
Actual Time 5:42 AM BST 8:25 PM BST
Civil Twilight 5:04 AM BST 9:03 PM BST
Nautical Twilight 4:15 AM BST 9:52 PM BST
Astronomical Twilight 3:15 AM BST 10:51 PM BST
Moon 1:15 PM BST (8/13) 10:53 PM BST (8/13)
Length of Visible Light 15h 59m
Length of Day
14h 43m
Waxing Crescent, 39% of the Moon is Illuminated
Aug 13
Waxing Crescent
Aug 14
First Quarter
Aug 21
Full
Aug 28
Last Quarter
Sep 5
New

Hourly Weather History & Observations

Time (BST) Temp. Dew Point Humidity Pressure Visibility Wind Dir Wind Speed Gust Speed Precip Events Conditions
12:20 AM 60.8 °F 48.2 °F 63% 30.09 in 6.2 mi WNW 9.2 mph - N/A   Unknown
12:50 AM 60.8 °F 48.2 °F 63% 30.09 in 6.2 mi NW 9.2 mph - N/A   Unknown
1:20 AM 59.0 °F 48.2 °F 67% 30.09 in 6.2 mi WNW 10.4 mph - N/A   Unknown
1:50 AM 59.0 °F 50.0 °F 72% 30.09 in 6.2 mi NW 6.9 mph - N/A   Unknown
2:20 AM 59.0 °F 48.2 °F 67% 30.09 in 6.2 mi WNW 10.4 mph - N/A   Unknown
2:50 AM 59.0 °F 50.0 °F 72% 30.09 in 6.2 mi WNW 8.1 mph - N/A   Unknown
3:20 AM 59.0 °F 50.0 °F 72% 30.12 in 6.2 mi WNW 10.4 mph - N/A   Unknown
3:50 AM 57.2 °F 50.0 °F 77% 30.12 in 6.2 mi WNW 9.2 mph - N/A   Unknown
4:20 AM 57.2 °F 50.0 °F 77% 30.12 in 6.2 mi West 11.5 mph - N/A   Unknown
4:50 AM 57.2 °F 50.0 °F 77% 30.12 in 6.2 mi WNW 11.5 mph - N/A   Unknown
5:20 AM 55.4 °F 48.2 °F 77% 30.12 in 6.2 mi West 11.5 mph - N/A   Unknown
5:50 AM 55.4 °F 48.2 °F 77% 30.12 in - West 10.4 mph - N/A   Clear
6:20 AM 55.4 °F 48.2 °F 77% 30.15 in - WSW 9.2 mph - N/A   Clear
6:50 AM 57.2 °F 48.2 °F 72% 30.15 in - West 9.2 mph - N/A   Clear
7:20 AM 59.0 °F 48.2 °F 67% 30.15 in - West 10.4 mph - N/A   Clear
7:50 AM 59.0 °F 48.2 °F 67% 30.15 in - West 11.5 mph - N/A   Clear
8:20 AM 59.0 °F 48.2 °F 67% 30.18 in - West 12.7 mph - N/A   Clear
8:50 AM 60.8 °F 48.2 °F 63% 30.18 in - West 10.4 mph - N/A   Clear
9:20 AM 60.8 °F 50.0 °F 68% 30.18 in - WNW 10.4 mph - N/A   Clear
9:50 AM 62.6 °F 48.2 °F 59% 30.18 in - West 11.5 mph - N/A   Clear
10:20 AM 64.4 °F 48.2 °F 56% 30.18 in 6.2 mi West 12.7 mph - N/A   Partly Cloudy
10:50 AM 64.4 °F 46.4 °F 52% 30.18 in 6.2 mi West 11.5 mph - N/A   Partly Cloudy
11:20 AM 68.0 °F 46.4 °F 46% 30.18 in 6.2 mi West 13.8 mph - N/A   Scattered Clouds
11:50 AM 66.2 °F 46.4 °F 49% 30.18 in 6.2 mi WNW 13.8 mph - N/A   Scattered Clouds
12:20 PM 68.0 °F 46.4 °F 46% 30.15 in 6.2 mi West 16.1 mph - N/A   Scattered Clouds
12:50 PM 68.0 °F 46.4 °F 46% 30.15 in 6.2 mi West 15.0 mph - N/A   Scattered Clouds
1:20 PM 68.0 °F 44.6 °F 43% 30.15 in 6.2 mi West 15.0 mph - N/A   Scattered Clouds
1:50 PM 69.8 °F 44.6 °F 40% 30.15 in 6.2 mi West 10.4 mph - N/A   Partly Cloudy
2:20 PM 69.8 °F 44.6 °F 40% 30.18 in - West 11.5 mph - N/A   Clear
2:50 PM 69.8 °F 44.6 °F 40% 30.18 in - West 11.5 mph - N/A   Clear
3:20 PM 68.0 °F 46.4 °F 46% 30.18 in - West 12.7 mph - N/A   Clear
3:50 PM 68.0 °F 44.6 °F 43% 30.15 in - West 13.8 mph - N/A   Clear
4:20 PM 66.2 °F 48.2 °F 52% 30.15 in 6.2 mi West 13.8 mph - N/A   Mostly Cloudy
4:50 PM 66.2 °F 50.0 °F 56% 30.18 in 6.2 mi WNW 13.8 mph - N/A   Scattered Clouds
5:20 PM 66.2 °F 50.0 °F 56% 30.18 in 6.2 mi West 16.1 mph - N/A   Partly Cloudy
5:50 PM 66.2 °F 50.0 °F 56% 30.18 in 6.2 mi WNW 13.8 mph - N/A   Partly Cloudy
6:20 PM 66.2 °F 51.8 °F 60% 30.18 in 6.2 mi WNW 10.4 mph - N/A   Partly Cloudy
6:50 PM 64.4 °F 51.8 °F 64% 30.18 in 6.2 mi WNW 11.5 mph - N/A   Scattered Clouds
7:20 PM 64.4 °F 53.6 °F 68% 30.18 in 6.2 mi West 11.5 mph - N/A   Partly Cloudy
7:50 PM 62.6 °F 53.6 °F 72% 30.18 in 6.2 mi WSW 9.2 mph - N/A   Partly Cloudy
8:20 PM 62.6 °F 53.6 °F 72% 30.18 in - West 6.9 mph - N/A   Clear
8:50 PM 62.6 °F 53.6 °F 72% 30.18 in - West 10.4 mph - N/A   Clear
9:20 PM 60.8 °F 51.8 °F 72% 30.21 in 6.2 mi West 6.9 mph - N/A   Unknown
9:50 PM 62.6 °F 53.6 °F 72% 30.21 in 6.2 mi West 8.1 mph - N/A   Unknown
10:20 PM 60.8 °F 55.4 °F 82% 30.21 in 6.2 mi West 6.9 mph - N/A   Unknown
10:50 PM 60.8 °F 53.6 °F 77% 30.21 in 6.2 mi WSW 6.9 mph - N/A   Unknown
11:20 PM 60.8 °F 53.6 °F 77% 30.21 in 6.2 mi West 6.9 mph - N/A   Unknown
11:50 PM 60.8 °F 53.6 °F 77% 30.21 in 6.2 mi WSW 8.1 mph - N/A   Unknown